カタログに戻る

THORAD DELTA 1 DEB

運用中SSO
NORAD 9984·DEBRIS·🇺🇸 United States

打ち上げ Nov 15, 1974 から Vandenberg Space Force Base

Loading…

次のパス (今後24時間)

TLE

最新Source: Space-Track

元期: Sep 14, 2026, 19:21 UTC

1 09984U 74089EB  26257.80669464 -.00000046  00000-0  43441-5 0  9995
2 09984 102.3436 256.4891 0095149 348.5637 188.0914 12.40461268348415

AllMySatでTHORAD DELTA 1 DEBをリアルタイム追跡

Download on the App Store